Tracking 35274 objects as of 11-Sep-2026
HD Live streaming from Space Station
objects crossing your sky now

ARIANE 44LP DEB


ARIANE 44LP DEB is no longer on orbit


NORAD ID: 26811
Int'l Code: 1988-109N
Launch date: December 11, 1988
Source: France (FR)
Launch site: FRENCH GUIANA (FRGUI)
Decay date: 2002-09-07

Note: This is SATELLITE DEBRIS
Your satellite tracking list
Your tracking list is empty




NASA's NSSDC Master Catalog

Two Line Element Set (TLE):
1 26811U 88109N   02250.68263681 +.18359611 -21375-4 +61883-2 0  9998
2 26811 006.7780 307.8425 1007544 015.6409 354.4454 14.04705563036455
Source of the keplerian elements: AFSPC